| time (UTC) | temp F | wind direction | speed MPH | gust MPH | rain 1hr in | rain 24hr in | rain mn in | humidity % | barometer mb |
| 20260505233843 | 47 | 127 | 3.0 | 11.0 | 0.00 | 0.01 | 0.00 | 74 | 1014.3 |
| 20260505231652 | 48 | 108 | 3.0 | 8.0 | 0.00 | 0.01 | 0.00 | 74 | 1014.2 |
| 20260505230906 | 48 | 64 | 3.0 | 8.0 | 0.00 | 0.01 | 0.00 | 74 | 1014.2 |
| 20260505224651 | 48 | 67 | 4.0 | 9.0 | 0.00 | 0.01 | 0.01 | 73 | 1014.1 |
| 20260505223151 | 48 | 71 | 3.0 | 8.0 | 0.00 | 0.01 | 0.01 | 73 | 1014.2 |
| 20260505221649 | 48 | 86 | 2.0 | 9.0 | 0.00 | 0.01 | 0.01 | 73 | 1014.3 |
| 20260505220148 | 48 | 60 | 3.0 | 9.0 | 0.00 | 0.01 | 0.01 | 73 | 1014.2 |
| 20260505215338 | 49 | 84 | 2.0 | 8.0 | 0.00 | 0.01 | 0.01 | 77 | 1014.1 |
| 20260505213148 | 50 | 58 | 2.0 | 7.0 | 0.00 | 0.01 | 0.01 | 77 | 1014.1 |
| 20260505211645 | 50 | 60 | 1.0 | 4.0 | 0.00 | 0.01 | 0.01 | 78 | 1014.0 |
| 20260505210146 | 50 | 76 | 2.0 | 5.0 | 0.00 | 0.01 | 0.01 | 78 | 1013.9 |
| 20260505204646 | 51 | 63 | 1.0 | 2.0 | 0.00 | 0.01 | 0.01 | 79 | 1013.8 |
| 20260505203144 | 51 | 44 | 0.0 | 3.0 | 0.00 | 0.01 | 0.01 | 78 | 1013.8 |
| 20260505201638 | 51 | 354 | 1.0 | 3.0 | 0.00 | 0.01 | 0.01 | 77 | 1013.8 |
| 20260505200137 | 51 | 336 | 1.0 | 4.0 | 0.00 | 0.01 | 0.01 | 76 | 1013.8 |
| 20260505194638 | 51 | 314 | 2.0 | 5.0 | 0.00 | 0.01 | 0.01 | 75 | 1013.7 |
| 20260505193826 | 51 | 41 | 2.0 | 5.0 | 0.00 | 0.01 | 0.01 | 73 | 1013.6 |
| 20260505191633 | 51 | 43 | 3.0 | 8.0 | 0.00 | 0.01 | 0.01 | 73 | 1013.5 |
| 20260505190132 | 52 | 12 | 3.0 | 9.0 | 0.00 | 0.01 | 0.01 | 71 | 1013.4 |
| 20260505184625 | 52 | 333 | 4.0 | 11.0 | 0.00 | 0.01 | 0.01 | 71 | 1013.5 |
| 20260505183124 | 53 | 343 | 4.0 | 9.0 | 0.00 | 0.01 | 0.01 | 70 | 1013.4 |
| 20260505181625 | 53 | 311 | 3.0 | 10.0 | 0.00 | 0.01 | 0.01 | 70 | 1013.4 |
| 20260505180829 | 54 | 56 | 4.0 | 10.0 | 0.00 | 0.01 | 0.01 | 68 | 1013.4 |
| 20260505175334 | 53 | 326 | 3.0 | 10.0 | 0.00 | 0.01 | 0.01 | 70 | 1013.5 |
| 20260505173123 | 53 | 327 | 5.0 | 11.0 | 0.00 | 0.01 | 0.01 | 69 | 1013.5 |
| 20260505172315 | 54 | 339 | 4.0 | 11.0 | 0.00 | 0.01 | 0.01 | 71 | 1013.5 |
| 20260505170814 | 53 | 352 | 5.0 | 11.0 | 0.00 | 0.01 | 0.01 | 71 | 1013.5 |
| 20260505164622 | 53 | 13 | 5.0 | 11.0 | 0.00 | 0.01 | 0.01 | 73 | 1013.6 |
| 20260505163120 | 53 | 285 | 5.0 | 12.0 | 0.00 | 0.01 | 0.01 | 75 | 1013.6 |
| 20260505163016 | 53 | 288 | 6.0 | 13.0 | 0.00 | 0.01 | 0.01 | 79 | 1013.5 |
| 20260505160122 | 53 | 296 | 6.0 | 11.0 | 0.00 | 0.01 | 0.01 | 77 | 1013.6 |
| 20260505151621 | 53 | 13 | 6.0 | 12.0 | 0.00 | 0.01 | 0.01 | 74 | 1013.5 |
| 20260505150122 | 53 | 326 | 6.0 | 12.0 | 0.00 | 0.01 | 0.01 | 75 | 1013.6 |
| 20260505140121 | 53 | 337 | 5.0 | 12.0 | 0.00 | 0.01 | 0.01 | 74 | 1013.7 |
| 20260505130114 | 53 | 300 | 7.0 | 13.0 | 0.00 | 0.01 | 0.01 | 72 | 1013.8 |
| 20260505124611 | 53 | 355 | 6.0 | 14.0 | 0.00 | 0.01 | 0.01 | 73 | 1013.9 |
| 20260505123114 | 52 | 291 | 7.0 | 14.0 | 0.00 | 0.01 | 0.01 | 77 | 1013.8 |
| 20260505121612 | 53 | 302 | 6.0 | 16.0 | 0.00 | 0.01 | 0.01 | 78 | 1013.9 |
| 20260505120803 | 52 | 273 | 7.0 | 13.0 | 0.00 | 0.01 | 0.01 | 78 | 1014.0 |
| 20260505114610 | 52 | 309 | 6.0 | 13.0 | 0.01 | 0.01 | 0.01 | 77 | 1014.1 |
| 20260505113801 | 53 | 342 | 5.0 | 12.0 | 0.01 | 0.01 | 0.01 | 76 | 1014.1 |
| 20260505111609 | 53 | 49 | 4.0 | 12.0 | 0.01 | 0.01 | 0.01 | 75 | 1014.1 |
| 20260505110809 | 53 | 269 | 4.0 | 13.0 | 0.01 | 0.01 | 0.01 | 75 | 1014.1 |
| 20260505101611 | 50 | 328 | 4.0 | 10.0 | 0.00 | 0.00 | 0.00 | 86 | 1014.3 |
| 20260505100110 | 50 | 72 | 5.0 | 13.0 | 0.00 | 0.00 | 0.00 | 86 | 1014.3 |
| 20260505095316 | 52 | 349 | 6.0 | 13.0 | 0.00 | 0.00 | 0.00 | 80 | 1014.1 |
| 20260505093803 | 52 | 347 | 6.0 | 13.0 | 0.00 | 0.00 | 0.00 | 81 | 1014.1 |
| 20260505091609 | 51 | 313 | 5.0 | 11.0 | 0.00 | 0.00 | 0.00 | 83 | 1014.1 |
| 20260505090111 | 51 | 305 | 5.0 | 11.0 | 0.00 | 0.00 | 0.00 | 83 | 1014.1 |
| 20260505084613 | 51 | 302 | 4.0 | 9.0 | 0.00 | 0.00 | 0.00 | 84 | 1014.2 |
| 20260505083813 | 51 | 4 | 4.0 | 9.0 | 0.00 | 0.00 | 0.00 | 84 | 1014.1 |
| 20260505083702 | 51 | 20 | 4.0 | 9.0 | 0.00 | 0.00 | 0.00 | 84 | 1014.2 |
| 20260505080108 | 51 | 314 | 3.0 | 9.0 | 0.00 | 0.00 | 0.00 | 84 | 1014.1 |
| 20260505074607 | 50 | 352 | 3.0 | 8.0 | 0.00 | 0.00 | 0.00 | 85 | 1014.1 |
| 20260505073759 | 50 | 302 | 3.0 | 7.0 | 0.00 | 0.00 | 0.00 | 86 | 1014.1 |
| 20260505071608 | 50 | 44 | 3.0 | 8.0 | 0.00 | 0.00 | 0.00 | 87 | 1014.1 |
| 20260505070108 | 50 | 321 | 3.0 | 8.0 | 0.00 | 0.00 | 0.00 | 87 | 1014.0 |
| 20260505064606 | 50 | 357 | 3.0 | 9.0 | 0.00 | 0.00 | 0.00 | 86 | 1014.2 |
| 20260505063105 | 50 | 347 | 3.0 | 7.0 | 0.00 | 0.00 | 0.00 | 86 | 1014.2 |
| 20260505061607 | 50 | 352 | 3.0 | 7.0 | 0.00 | 0.00 | 0.00 | 86 | 1014.2 |
| 20260505060105 | 49 | 356 | 2.0 | 7.0 | 0.00 | 0.00 | 0.00 | 86 | 1014.2 |
| 20260505054605 | 49 | 333 | 3.0 | 7.0 | 0.00 | 0.00 | 0.00 | 86 | 1014.0 |
| 20260505053800 | 49 | 356 | 3.0 | 6.0 | 0.00 | 0.00 | 0.00 | 86 | 1014.0 |
| 20260505051605 | 49 | 54 | 2.0 | 7.0 | 0.00 | 0.00 | 0.00 | 86 | 1013.9 |
| 20260505050754 | 48 | 352 | 2.0 | 7.0 | 0.00 | 0.00 | 0.00 | 86 | 1013.8 |
| 20260505041605 | 48 | 322 | 3.0 | 6.0 | 0.00 | 0.00 | 0.00 | 86 | 1013.8 |
| 20260505040105 | 48 | 22 | 1.0 | 5.0 | 0.00 | 0.00 | 0.00 | 85 | 1013.7 |
| 20260505034605 | 48 | 64 | 2.0 | 7.0 | 0.00 | 0.00 | 0.00 | 84 | 1013.7 |
| 20260505033811 | 48 | 345 | 3.0 | 8.0 | 0.00 | 0.00 | 0.00 | 83 | 1013.8 |
| 20260505031606 | 48 | 338 | 3.0 | 10.0 | 0.00 | 0.00 | 0.00 | 83 | 1013.8 |
| 20260505030106 | 48 | 326 | 3.0 | 7.0 | 0.00 | 0.00 | 0.00 | 86 | 1013.9 |
| 20260505024607 | 48 | 12 | 3.0 | 8.0 | 0.00 | 0.00 | 0.00 | 86 | 1013.9 |
| 20260505023106 | 49 | 312 | 3.0 | 9.0 | 0.00 | 0.00 | 0.00 | 86 | 1014.0 |
| 20260505021606 | 49 | 319 | 3.0 | 7.0 | 0.00 | 0.00 | 0.00 | 86 | 1013.9 |
| 20260505014602 | 49 | 16 | 3.0 | 7.0 | 0.00 | 0.00 | 0.00 | 89 | 1014.2 |
| 20260505013103 | 49 | 316 | 3.0 | 7.0 | 0.00 | 0.00 | 0.00 | 89 | 1014.2 |
| 20260505011601 | 49 | 23 | 3.0 | 7.0 | 0.00 | 0.00 | 0.00 | 90 | 1014.4 |
| 20260505010100 | 50 | 333 | 2.0 | 8.0 | 0.00 | 0.00 | 0.00 | 91 | 1014.2 |
| 20260505005256 | 50 | 318 | 3.0 | 8.0 | 0.00 | 0.00 | 0.00 | 90 | 1014.4 |
| 20260505003054 | 50 | 305 | 3.0 | 8.0 | 0.00 | 0.00 | 0.00 | 89 | 1014.5 |
| 20260505001555 | 50 | 3 | 3.0 | 7.0 | 0.00 | 0.00 | 0.00 | 88 | 1014.7 |
| 20260505000056 | 50 | 306 | 2.0 | 7.0 | 0.00 | 0.00 | 0.00 | 88 | 1014.6 |
| 20260504234554 | 50 | 330 | 3.0 | 7.0 | 0.00 | 0.00 | 0.00 | 88 | 1014.7 |